Voltar ao catálogo

THORAD DELTA 1 DEB

AtivoSSO
NORAD 8166·DEBRIS·🇺🇸 United States

Lançado Nov 15, 1974 de Vandenberg Space Force Base

Loading…

Próximas Passagens (próximas 24 horas)

TLE

AtualizadoSource: Space-Track

Época: Sep 13, 2026, 22:42 UTC

1  8166U 74089AG  26256.94628366  .00000021  00000-0  42887-3 0  9999
2  8166 102.0289 254.7390 0038158 189.4338 198.1262 12.51681507365061

Acompanhe THORAD DELTA 1 DEB em tempo real com AllMySat

Download on the App Store